CAPE
0 0 0 0 0 127 520 1000 905 589 283 143 362 189 71 25 8 0 0 0 0 0 12 39 26 21 82 7 27 11 68 208
0 0 0 0 0 138 498 847 1030 923 619 412 528 447 296 253 124 137 45 15 6 0 28 234 113 104 88 83 89 179 254 219
0 0 0 0 0 66 403 698 1074 1226 1145 820 605 759 741 458 326 241 310 217 144 113 105 242 521 350 287 242 141 223 203 168
0 0 0 0 0 0 252 476 875 1268 1324 1238 941 643 506 711 449 459 394 549 398 298 262 354 543 675 539 316 177 210 209 112
0 0 0 0 0 0 35 377 685 1260 1253 1190 1185 1077 838 669 766 556 513 612 727 622 474 459 524 652 731 535 304 241 178 260
0 0 0 0 0 0 0 161 511 1011 1157 1155 1118 1127 1016 835 737 783 620 594 739 752 682 708 757 590 554 626 452 323 202 173
0 0 0 0 0 0 0 31 256 460 825 1046 1106 1113 1021 1039 955 915 726 765 747 657 724 708 705 725 648 579 448 330 243 231
0 0 0 0 1 34 20 32 26 19 173 822 1159 1219 1113 1245 1139 1074 843 690 523 519 543 504 528 660 672 557 503 416 361 344
0 0 0 0 49 57 34 11 0 1 0 0 94 832 1045 1094 1087 908 793 594 546 279 346 355 440 699 585 505 454 525 442 348
0 0 0 48 80 31 0 0 9 44 193 135 55 195 679 833 705 601 464 329 222 208 250 406 362 345 246 189 236 187 133 69
0 0 75 142 100 15 0 0 0 25 209 385 450 492 435 402 339 394 377 229 138 276 449 290 107 70 60 57 58 33 37 4
0 86 130 87 99 96 33 0 0 0 35 183 291 312 274 217 203 100 70 13 8 34 53 57 55 31 3 0 0 0 0 0
11 100 54 80 122 95 42 0 0 0 0 0 19 60 73 90 72 61 3 21 0 0 0 1 1 0 0 0 0 0 0 0
18 12 48 57 105 113 0 0 0 0 11 32 59 88 85 55 13 0 1 0 0 1 0 0 0 0 0 0 0 0 0 0
4 35 30 45 68 35 0 0 0 0 0 6 42 55 38 7 1 1 0 0 0 0 0 0 0 0 0 0 0 0 0 0
0 0 0 57 70 53 0 0 0 0 0 0 0 0 0 0 0 0 0 0 0 0 0 0 0 0 0 0 0 0 0 0
0 0 8 11 4 0 0 0 0 0 0 0 0 0 0 0 0 0 0 0 0 0 0 0 0 0 0 0 0 0 0 0
0 12 47 65 34 11 2 0 0 0 0 0 0 0 0 0 0 0 0 0 0 0 0 0 0 0 0 0 0 0 0 0
2 2 110 116 41 0 1 0 0 0 0 0 0 0 0 0 0 0 0 0 0 0 0 0 0 0 0 0 0 0 0 0
CIN
-0 -0 -0 -0 -0 -488 -409 -407 -439 -456 -517 -596 -485 -508 -565 -566 -445 -0 -0 -0 -0 -0 -397 -318 -301 -292 -235 -411 -333 -239 -250 -163
-0 -0 -0 -0 -0 -463 -421 -393 -416 -418 -423 -443 -426 -445 -439 -444 -464 -413 -394 -343 -417 -522 -371 -206 -218 -235 -203 -191 -190 -164 -145 -154
-0 -0 -0 -0 -0 -470 -412 -387 -418 -404 -390 -384 -368 -316 -322 -350 -376 -389 -336 -267 -214 -218 -276 -211 -99 -131 -144 -143 -148 -124 -95 -111
-0 -0 -0 -0 -0 -0 -434 -410 -394 -394 -365 -307 -297 -261 -258 -181 -255 -245 -261 -202 -181 -150 -157 -143 -93 -52 -77 -123 -128 -86 -77 -135
-0 -0 -0 -0 -0 -0 -489 -421 -412 -377 -360 -330 -280 -231 -213 -239 -166 -164 -153 -129 -101 -96 -114 -105 -88 -62 -51 -68 -96 -96 -91 -53
-0 -0 -0 -0 -0 -0 -0 -473 -418 -342 -319 -294 -263 -227 -224 -211 -165 -116 -91 -79 -60 -60 -66 -57 -51 -64 -55 -45 -58 -72 -109 -85
-0 -0 -0 -0 -0 -0 -0 -518 -404 -344 -292 -294 -260 -221 -235 -167 -123 -85 -85 -66 -65 -63 -60 -63 -62 -57 -51 -48 -60 -66 -83 -74
-0 -0 -0 -0 -187 -611 -567 -523 -531 -621 -447 -291 -238 -206 -202 -115 -88 -66 -74 -72 -75 -72 -78 -80 -85 -76 -70 -75 -53 -59 -57 -51
-0 -0 -0 -0 -573 -540 -512 -418 -0 -118 -0 -0 -475 -248 -184 -132 -88 -76 -66 -67 -65 -117 -107 -108 -87 -76 -62 -47 -47 -50 -46 -47
-0 -0 -0 -560 -555 -581 -0 -0 -608 -585 -521 -534 -561 -413 -244 -168 -146 -111 -95 -116 -139 -112 -104 -75 -87 -87 -97 -94 -72 -80 -98 -104
-0 -0 -490 -556 -575 -678 -0 -0 -0 -580 -527 -450 -388 -329 -289 -259 -221 -151 -130 -152 -159 -107 -60 -69 -112 -122 -120 -106 -107 -141 -132 -136
-0 -436 -455 -509 -628 -668 -671 -0 -0 -0 -716 -521 -410 -362 -348 -323 -294 -319 -286 -292 -253 -167 -155 -125 -117 -149 -56 -0 -57 -0 -26 -0
-140 -380 -496 -555 -556 -613 -617 -0 -0 -0 -0 -42 -682 -554 -488 -432 -391 -324 -362 -277 -1 -0 -0 -32 -0 -0 -0 -0 -0 -0 -0 -0
-316 -393 -422 -467 -527 -561 -1 -0 -0 -0 -736 -633 -538 -467 -436 -410 -411 -0 -0 -0 -0 -0 -0 -0 -0 -0 -0 -0 -0 -0 -0 -0
-118 -377 -399 -446 -500 -532 -0 -0 -0 -0 -0 -428 -529 -472 -437 -222 -0 -0 -0 -0 -0 -0 -0 -0 -0 -0 -0 -0 -0 -0 -0 -0
-0 -0 -0 -434 -473 -556 -1 -0 -0 -0 -0 -0 -0 -0 -0 -0 -0 -0 -0 -0 -0 -0 -0 -0 -0 -0 -0 -0 -0 -0 -0 -0
-0 -0 -299 -356 -192 -0 -0 -0 -0 -0 -0 -0 -0 -0 -0 -0 -0 -0 -0 -0 -0 -0 -0 -0 -0 -0 -0 -0 -0 -0 -0 -0
-0 -247 -252 -310 -367 -457 -112 -0 -0 -0 -0 -0 -0 -0 -0 -0 -0 -0 -0 -0 -0 -0 -0 -0 -0 -0 -0 -0 -0 -0 -0 -0
-79 -86 -228 -266 -374 -0 -235 -0 -0 -0 -0 -0 -0 -0 -0 -0 -0 -0 -0 -0 -0 -0 -0 -0 -0 -0 -0 -0 -0 -0 -0 -0
Wind_Speed
14 10 10 8 6 12 17 17 19 21 19 17 12 10 9 9 10 10 11 13 14 13 13 12 11 12 12 14 15 15 22 19
15 16 13 12 6 10 14 15 17 16 17 17 15 16 12 9 9 11 11 13 14 15 13 14 13 13 13 12 14 13 15 16
26 22 20 15 9 13 12 13 13 16 15 16 14 13 10 11 9 10 12 14 15 15 15 15 15 14 16 15 15 16 17 15
22 26 22 18 12 12 14 12 12 13 12 8 4 5 5 8 10 11 12 13 16 17 17 16 16 17 17 18 17 16 16 17
35 27 21 18 13 12 13 12 11 10 9 8 10 9 11 13 11 11 12 13 14 16 17 18 17 18 20 20 20 20 20 18
44 35 26 19 15 11 11 11 10 9 10 9 10 10 9 6 8 10 11 12 14 16 17 18 19 18 22 22 22 20 20 20
39 28 21 18 12 9 8 8 8 8 8 9 10 10 8 7 7 8 10 11 12 14 16 18 18 19 20 21 20 20 21 21
31 18 14 11 10 9 8 7 7 7 7 9 10 10 9 9 8 7 7 8 10 12 13 15 18 18 19 19 20 22 22 23
23 15 12 9 9 9 8 8 8 8 9 10 10 10 10 9 8 7 6 7 9 10 12 13 15 17 19 20 21 21 21 23
23 17 14 11 9 8 7 8 8 13 13 14 13 11 10 9 9 7 7 6 6 8 10 12 14 16 17 19 21 22 23 24
19 17 14 10 10 8 8 9 11 13 15 16 14 13 12 11 9 9 9 8 7 8 10 13 14 16 17 18 19 19 18 19
17 16 14 11 8 9 10 10 12 14 16 16 15 15 14 13 12 11 10 9 8 9 11 13 15 16 16 17 16 17 17 17
17 16 14 13 10 6 8 11 13 14 14 15 17 16 15 14 14 12 10 10 9 9 11 11 13 13 12 13 14 14 14 15
18 18 18 16 14 12 12 12 12 12 14 15 15 15 15 14 13 13 13 13 11 9 9 10 10 10 12 12 11 13 14 14
23 22 21 19 16 15 15 14 11 12 14 15 15 15 15 15 15 14 13 12 10 8 9 8 9 10 11 11 12 13 13 15
30 26 24 22 20 18 17 14 11 11 15 15 15 15 15 15 15 13 13 11 8 7 6 6 7 7 9 10 12 13 14 15
27 29 28 26 24 21 19 16 14 13 15 14 14 14 14 14 14 13 11 10 7 6 5 5 7 8 9 9 11 13 15 17
30 29 28 26 25 21 20 19 16 15 14 13 13 13 14 14 14 14 12 9 8 8 7 7 7 7 9 12 14 16 18 21
29 28 29 29 28 26 23 20 19 17 16 16 14 14 13 13 13 13 11 10 9 8 8 7 8 9 11 14 18 20 22 26
Wind_Direction
282 250 262 269 210 181 177 178 183 183 181 179 182 186 194 201 203 208 205 207 208 215 256 260 245 258 256 262 268 270 278 280
283 285 279 275 250 193 179 176 177 176 179 182 186 194 199 208 218 217 217 215 214 215 230 253 246 246 253 253 263 264 274 281
282 278 277 275 242 208 200 189 182 183 186 190 196 198 207 213 224 232 222 217 221 222 225 237 246 252 259 257 256 269 275 277
276 275 272 277 257 219 211 208 199 193 194 193 218 219 242 226 230 230 232 223 220 221 227 234 241 252 254 259 256 258 267 277
277 275 265 256 255 231 224 223 216 210 206 213 211 225 229 229 231 228 229 229 227 227 231 235 242 249 260 263 264 265 270 269
269 272 269 260 263 248 234 229 224 222 214 223 232 238 240 260 239 231 227 229 233 233 233 235 236 247 260 263 264 264 268 271
278 278 268 263 258 250 241 231 224 229 230 237 241 247 258 265 251 241 234 230 235 238 237 234 239 249 256 261 261 263 266 271
285 264 260 247 234 231 232 234 255 274 263 252 259 262 263 256 252 248 241 231 231 233 239 246 250 252 260 265 265 266 268 270
266 249 249 238 225 227 243 256 279 295 294 294 288 276 274 273 267 267 248 238 228 239 240 249 246 254 266 272 272 272 274 278
256 253 240 229 215 220 241 263 290 306 308 313 312 303 291 285 285 283 283 273 241 243 243 250 254 259 267 271 271 274 276 280
239 239 233 231 234 244 265 281 297 302 308 313 314 314 312 307 300 292 292 288 268 256 255 260 259 260 267 274 275 277 276 280
231 234 235 232 237 258 280 290 299 302 305 309 310 310 312 310 305 301 297 295 281 265 266 266 259 263 268 274 273 277 277 280
232 234 235 236 247 260 274 287 300 306 311 311 309 309 310 310 308 305 302 300 293 281 275 267 266 265 261 264 273 275 276 283
245 246 245 248 257 264 276 284 294 304 313 315 313 311 309 307 308 308 307 305 299 289 277 269 266 264 269 275 271 278 282 286
251 251 250 252 252 260 273 276 285 299 308 310 312 311 308 307 307 306 304 303 298 291 285 274 272 274 277 275 278 281 286 292
255 252 251 252 255 262 269 266 272 288 302 303 309 311 310 308 308 306 305 303 299 291 283 279 274 272 274 275 280 285 289 294
261 254 253 254 254 257 261 262 270 276 294 296 305 311 312 311 310 308 307 306 294 288 279 278 281 285 281 283 287 290 294 297
268 258 253 253 252 253 254 260 266 270 282 289 298 306 308 309 308 305 302 295 290 290 290 289 288 289 291 294 297 299 301 302
269 267 264 260 259 259 262 261 260 265 271 279 287 296 302 306 305 299 296 291 290 289 290 294 296 299 301 301 302 303 304 304